www.pogodaiklimat.ru
ПОГОДА в Мориарти
Время
и дата
03:35 30.01
03:55 30.01
04:15 30.01
04:35 30.01
04:55 30.01
05:15 30.01
05:35 30.01
05:55 30.01
06:15 30.01
06:35 30.01
06:55 30.01
07:15 30.01
07:35 30.01
07:55 30.01
08:15 30.01
08:35 30.01
08:55 30.01
09:15 30.01
09:35 30.01
09:55 30.01
10:15 30.01
10:35 30.01
10:55 30.01
11:15 30.01
11:35 30.01
11:55 30.01
12:15 30.01
12:35 30.01
12:55 30.01
13:15 30.01
13:35 30.01
13:55 30.01
14:15 30.01
14:35 30.01
14:55 30.01
15:15 30.01
15:35 30.01
15:55 30.01
16:15 30.01
16:35 30.01
16:55 30.01
17:15 30.01
17:35 30.01
17:55 30.01
18:15 30.01
18:35 30.01
18:55 30.01
19:15 30.01
Ветер
(напр.,м/с)
Видим. Явления Облачность Т
(С)
Тd
(С)
f
(%)
Тe
(С)
Тes
(С)
Комфортность P
(гПа)
Po
(гПа)
Тmin
(С)
Tmax
(С)
R
(мм)
R24
(мм)
S
(см)
штиль 0 16 км ясно -9.5 -12.2 81 -10 -10 807.6
штиль 0 16 км ясно -10.0 -12.6 81 -10 -10 807.6
штиль 0 16 км ясно -9.1 -11.6 82 -10 -10 807.6
штиль 0 16 км ясно -10.4 -12.8 83 -11 -11 807.6
штиль 0 16 км ясно -11.0 -12.9 86 -11 -11 807.9 -11.4 -1.8
штиль 0 16 км ясно -10.9 -12.8 86 -11 -11 807.9
штиль 0 16 км ясно -10.2 -11.8 88 -11 -11 808.2
штиль 0 16 км ясно -9.5 -11.9 83 -10 -10 808.2
С 2 16 км ясно -12.3 -13.6 90 -17 -17 808.4
штиль 0 16 км ясно -12.3 -13.3 92 -12 -12 808.4
штиль 0 16 км ясно -12.9 -13.8 93 -13 -13 808.7
С 2 16 км ясно -11.5 -13.0 89 -16 -16 808.7
штиль 0 16 км ясно -12.4 -13.9 89 -12 -12 809.0
штиль 0 16 км ясно -9.5 -11.3 87 -10 -10 809.2
штиль 0 16 км ясно -7.0 -8.9 86 -8 -7 809.2
штиль 0 16 км ясно -5.2 -8.0 81 -6 -5 809.5
штиль 0 16 км ясно -4.0 -7.9 74 -5 -4 809.5
штиль 0 16 км ясно -2.6 -8.0 66 -3 +1 809.5
штиль 0 16 км ясно -1.2 -7.8 61 -2 +2 809.5
ЮВ 2 16 км ясно +0.3 -8.1 53 -3 0 809.2
Ю 3 16 км ясно +2.1 -8.5 45 -1 +3 809.2
Ю 2 16 км ясно +3.4 -8.1 43 +1 +7 809.2
Ю 4 16 км ясно +4.6 -8.1 39 +1 +5 809.0 -13.2 +4.7
Ю 4 16 км ясно +6.2 -8.6 34 +3 +8 808.4
ЮЗ 5 16 км ясно +8.3 -9.6 27 +6 +9 808.2
ЮЗ 6 16 км ясно +9.6 -13.3 18 +7 +10 807.9
З 5
{8}
16 км ясно +10.5 -16.9 13 +8 +13 807.4
ЮЗ 8
{10}
16 км ясно +11.0 -19.0 10 +8 +10 807.1
ЮЗ 8
{10}
16 км ясно +11.2 -19.3 10 +9 +10 806.8
ЮЗ 7
{11}
16 км ясно +11.0 -18.6 11 +8 +11 806.5
ЮЗ 5
{11}
16 км ясно +11.1 -18.3 11 +9 +13 806.3
ЮЗ 8
{10}
16 км ясно +11.3 -18.1 11 +9 +10 806.3
ЮЗ 7
{10}
16 км ясно +11.5 -17.6 11 +9 +11 806.0
ЮЗ 9
{13}
16 км ясно +11.3 -17.7 11 +8 +9 806.0
ЮЗ 7
{12}
16 км ясно +11.1 -17.6 12 +9 +10 806.0
ЮЗ 7
{10}
16 км ясно +11.1 -17.4 12 +9 +10 806.0
ЮЗ 8
{10}
16 км ясно +10.9 -17.8 12 +8 +9 806.0
ЮЗ 6
{9}
16 км ясно +10.7 -17.8 12 +8 +10 806.0
ЮЗ 7
{8}
16 км ясно +10.5 -17.8 12 +8 +8 806.0
ЮЗ 5 16 км ясно +10.0 -17.6 13 +8 +8 806.0
ЮЗ 3 16 км ясно +9.4 -17.5 13 +8 +9 806.0 +5.2 +11.7
ЮЗ 3 16 км ясно +7.0 -16.5 17 +5 +5 806.0
ЮЗ 3 16 км ясно +5.3 -16.5 19 +3 +3 806.0
ЮЗ 3 16 км ясно +4.0 -16.3 21 +2 +2 806.3
Ю 3 16 км ясно +0.2 -15.5 30 -3 -3 806.3
штиль 0 16 км ясно -0.6 -15.4 32 -1 -1 806.3
ЮЗ 2 16 км ясно -0.1 -15.3 31 -3 -3 806.3
Ю 3 16 км ясно -0.1 -15.2 31 -4 -4 806.8
Местоположение метеостанции Moriarty Airport: широта 34.9856 долгота -106.0095 высота над уровнем моря 1889 м.
В архиве по умолчанию представлена погода в Мориарти за последние 1-2 суток. Обновление информации о фактической погоде в базе происходит ежечасно! Архивные данные за месяц целиком и за предыдущие месяцы Вы можете получить, выбрав интересующий диапазон дат из раскрывающегося списка и нажав кнопку "Ввод!".
Внимание! Архив погоды МЕТАР в базе сайта по станциям, не включенным в климатический монитор, хранится не более 60 дней. Нет смысла пытаться выбрать более раннюю дату.
*Определитесь, кто Вы:
Внимание! Время в таблицах - местное (без учета летнего времени). Для получения всемирного времени необходимо вычесть поправку, которая равна -7 ч.
Смотрите также архив погоды в соседних городах и на ближайших метеорологических станциях:
Партнеры нашего сайта:      
Пояснения к столбцам:
  • Ветер - указаны скорость ветра в м/с - средняя за 10 мин, порывы в срок и между сроками (в фигурных скобках) и направление, откуда дует ветер: С - северный,
  • СВ - северо-восточный, В - восточный, ЮВ - юго-восточный, Ю - южный, ЮЗ - юго-западный, З - западный, СЗ - северо-западный.
  • Видимость - горизонтальная дальность видимости в метрах или километрах. При видимости от 1 до 10 км при отсутствии осадков обычно наблюдается дымка, при ухудшении видимости до 1 км и менее - туман. В сухую погоду видимость может ухудшаться дымом, пылью или мглою.
  • Явления - указаны атмосферные явления, наблюдавшиеся в срок или в последний час перед сроком; фигурными скобками обозначены явления, наблюдавшиеся между сроками (за 1-3 часа до срока); квадратными скобками обозначены град или гололедные отложения с указанием их диаметра в мм.
  • Облачность - указаны через наклонную черту общая и нижняя облачность в баллах и высота нижней границы облаков в метрах; квадратными скобками обозначены формы облаков: Ci - перистые, Cs - перисто-слоистые, Cc - перисто-кучевые, Ac - высококучевые, As - высокослоистые, Sc - слоисто-кучевые, Ns - слоисто-дождевые, Cu - кучевые, Cb - кучево-дождевые. Подробнее классификацию облаков см. в Атласе облаков (PDF).
  • T - Температура воздуха - температура, измеренная на высоте 2 м над землей.
  • Td - Температура точки росы - температура, при понижении до которой содержащийся в воздухе водяной пар достигнет насыщения.
  • f - Относительная влажность воздуха - влажноcть воздуха, измеренная на высоте 2 м над землей.
  • Te - Эффективная температура - температура, которую ощущает одетый по сезону человек в тени. Характеристика душности погоды. При расчете учитывается влияние влажности воздуха и скорости ветра на теплоощущения человека.
  • Tes - Эффективная температура на солнце - температура, которую ощущает человек, с поправкой на солнечный нагрев. Характеристика знойности погоды. Зависит от высоты солнца над горизонтом, облачности и скорости ветра. Ночью, в пасмурную погоду, а также при ветре 12 м/с и более поправка равна нулю.
  • P - Атмосферное давление - приведенное к уровню моря атмосферное давление.
  • Po - Атмосферное давление - измеренное на уровне метеостанции атмосферное давление.
  • Tmin - Минимальная температура - минимум температуры воздуха на высоте 2 м над землей.
  • Tmax - Максимальная температура - максимум температуры воздуха на высоте 2 м над землей.
  • R - Количество осадков - Количество выпавших осадков за период времени, мм. При наведении курсора мыши на число - период времени, за который выпало указанное количество осадков.
  • R24 - Количество осадков - Количество выпавших осадков за 24 часа, мм.
  • S - Снежный покров - Высота снежного покрова, см. При наведении курсора мыши на число - состояние снежного покрова и степень покрытия местности в баллах.